Погода в Волчихе

Погода в Волчихе : погода сейчас, прогноз погоды и архив. Всё, что Вы хотите узнать о погоде в Волчихе!

Хотите узнать прогноз погоды в Волчихе? Тогда Вам сюда: Погода в Волчихе

Поиск расширенной информации на нашем сайте:

Другие новости

Новости СМИ2

Главная страница сайта

Новости сайта

02.10.2013

Напоминаем, что на нашем новом сайте вы можете получить высокодетализированные прогнозы погоды по пунктам России, СНГ и мира (включающие важные для авиации метеовеличины, такие как направление и скорость ветра, видимость, явления погоды, количество и форма облачности, нижняя и верхняя граница облачности), а также ознакомиться с разнообразными материалами по авиационной метеорологии и подборкой полезных ссылок на эту тему.

Сайт Метеоцентр.Азия посвящён разработке технологий оптимизации авиаметеорологического обслуживания, включая проектирование и перспективное создание нескольких автоматизированных авиаметеорологических систем:
- система выпуска высокодетальных прогностических карт явлений погоды для нижнего воздушного пространства по России и ближнему зарубежью;
- система верификации прогнозов TAF (выпускаемых синоптиками официальных АМСГ РФ и ближнего зарубежья) и AUTOTAF (выпускаемых сайтом Метеоцентр.Азия) - выявление ошибок, онлайн-сопоставление с фактической погодой METAR, автоматическое внесение коррективов в прогнозы при резком отклонении фактической погоды от прогноза, подсчёт оправдываемости прогнозов по элементам и в целом;
- система обработки, анализа и отображения авиаметеорологической информации для применения провайдерами метеорологической информации.

Рекомендуем: Модифицированные штукатурные смеси.

Погода в Волчихе - сегодня

Время (UTC), дата Ветер
(°,м/с) 
Видим.   Явления Облачность Т
(°С)
Тd
(°С)
f(%) Тe
(°С)
Pmin
(гПа)
dP
(гПа)
Po
(мм)
O2
(г/м3)
Тmin Tmax R s Состояние
почвы
18 19.05.17 210 (ЮЗ) 20000 м    ясно 
+8.5 -1.4 50 +9  1026.4  751  293           
21 19.05.17 200 (Ю) 20000 м    9/0 средняя 
[Ac trans]
+7.5 +0.2 60 +8  1026.1  -0.4  750  294           
00 20.05.17 210 (ЮЗ) 20000 м    3/0 средняя 
[Ac cast]
+8.4 +1.4 61 +9  1025.6  -0.4  750  293  +6.1        сухая 
03 20.05.17 280 (З) 6{10}  20000 м    10/0 средняя 
[Ac und]
+15.6 -1.3 31 +15  1024.5  -0.4  750  286           
06 20.05.17 240 (ЮЗ) 3{10}  20000 м    10/1 600 м средняя, верхняя 
[Cu hum|Ac trans|Ci fib]
+20.6 +2.6 30 +21  1022.8  -1.3  749  280           
09 20.05.17 280 (З) 20000 м    10/9 800 м верхняя 
[Cu hum|Ci fib]
+21.3 -0.8 23 +21  1020.8  -1.8  747  279           
12 20.05.17 250 (З) 4{11}  20000 м    10/3 600 м верхняя 
[Sc diur, vesp|Cs]
+21.4 -1.6 21 +21  1019.1  -1.7  746  279    +22.9       
15 20.05.17 200 (Ю) 20000 м    10/0 средняя 
[As op]
+15.5 -1.1 32 +17  1018.8  -0.8  746  284           
18 20.05.17 200 (Ю) 20000 м    10/0 средняя 
[As op]
+11.4 +1.5 51 +13  1018.8  -1  745  288           
21 20.05.17 250 (З) 20000 м    3/0 средняя 
[Ac trans]
+8.7 +2.1 63 +10  1017.5  -0.8  744  290           
00 21.05.17 210 (ЮЗ) 20000 м    10/0 средняя, верхняя 
[Ac cast|Ci fib]
+8.2 +2.9 69 +9  1017.3  -0.2  744  291  +5.7        сухая 
03 21.05.17 220 (ЮЗ) 20000 м    10/0 верхняя 
[Ci]
+17.8 +4.4 41 +19  1016.3  -0.2  744  281           
06 21.05.17 290 (З) 20000 м    1/1 1000 м 
[Cu hum]
+23.7 -0.3 20 +24  1015.6  -0.2  744  276           
09 21.05.17 320 (СЗ) 5{11}  20000 м    3/3 1000 м 
[Cu hum]
+24 -0.5 20 +24  1015.4  -0.2  744  275           
12 21.05.17 320 (СЗ) 20000 м    4/3 1000 м верхняя 
[Sc diur, vesp|Ci fib]
+24.8 -1.1 18 +25  1015.5  0.1  744  275    +25.2       
15 21.05.17 тихо ()   20000 м    1/0 верхняя 
[Ci fib]
+15.7 +2.9 42 +16  1016.5  0.3  744  283           
18 21.05.17 070 (В) 20000 м    1/0 верхняя 
[Ci fib]
+7.7 +0.9 62 +9  1017.7  0.4  744  291           
21 21.05.17 020 (С) 20000 м    8/0 верхняя 
[Ci fib]
+6.1 +0.7 68 +6  1017.4  -0.4  744  293           
00 22.05.17 тихо ()   20000 м    10/0 средняя 
[Ac und]
+6.7 +2.6 75 +7  1017.5  0.2  744  292  +4.9        сухая 
03 22.05.17 190 (Ю) 20000 м    10/0 верхняя 
[Ci]
+19.4 +5.7 41 +20  1016.1  -0.3  744  279           
06 22.05.17 170 (Ю) 20000 м    10/0 верхняя 
[Ci]
+25.8 +1.6 21 +26  1014.1  -1.4  743  273           
09 22.05.17 230 (ЮЗ) 20000 м    10/0 средняя 
[Ac und]
+26.6 -1.6 16 +27  1012.8  -1.2  742  273           
12 22.05.17 200 (Ю) 20000 м    10/0 средняя, верхняя 
[Ac As|Ci]
+26.1 -0.5 17 +26  1011.4  -1.4  741  272    +27.4       
15 22.05.17 160 (Ю) 20000 м    10/0 средняя, верхняя 
[Ac As|Ci]
+21.4 +1.4 27 +21  1010.9  -0.9  740  276           
18 22.05.17 140 (ЮВ) 20000 м    ясно 
+13.5 +2.6 48 +14  1011.3  -0.3  740  284           
Время (UTC), дата Ветер
(°,м/с) 
Видим.   Явления Облачность Т
(°С)
Тd
(°С)
f(%) Тe
(°С)
Pmin
(гПа)
dP
(гПа)
Po
(мм)
O2
(г/м3)
Тmin Tmax R s Состояние
почвы

Для получения пояснительной информации подведите курсор к названию столбца.

ПОГОДА в Волчихе - архив

Всё, что Вы хотите узнать о погоде в Волчихе - удобно и подробно!

Выберите нужную дату (начиная с 1 января 2015* года) и нажмите кнопку "Найти".
Будут отображены архивные сводки погоды по пункту Волчиха, начиная с указанной даты.


Отображать данные в формате CSV (для использования в таблицах Excel)


Внимание! Наш архив погоды предназначен исключительно для личного некоммерческого использования в познавательных целях. Если Вам необходимы официальные справки о состоянии погоды (для производственных, юридических, коммерческих и т.п. целей), обращайтесь в органы Росгидромета.

*Примечание: данная дата относится к архиву по метеостанциям СССР (Россия, СНГ, Балтия).
Архив по метеостанциям Зарубежной Европы и Азии (кроме Китая) хранится 10 дней, по другим регионам земного шара (Китай, Африка, Америка, Австралия, Океания) - 1 день.

Волчиха - район местоположения метеостанции


Название, широта, долгота, высота метеостанции:
Волчиха 52°ш. 80.4°д. 208 м над ур. моря [Российская Федерация]

Дополнительная информация

В oтличие oт бoльшинства пoгoдных сайтoв мы публикуем пoдрoбную метеoинфoрмацию в детальнoм прoфессиoнальнoм фoрмате.

Характеристики температуры и влажнoсти вoздуха измеряются на высoте 2 м в тени вдали oт зданий и деревьев.
Скoрoсть ветра измеряется на высoте 10 м (на урoвне рoста челoвека скoрoсть ветра ниже в 1.5-2 раза). Если метеoстанция нахoдится в гoрoде или в лесу, тo скoрoсть ветра занижена на 2-4 м/с пo сравнению с oткрытым местoм. Скoрoсть ветра над акватoриями крупных рек и oзёр, а также на вершинах хoлмoв на 2-5 м/с выше, чем в oбычных услoвиях.
Атмoсфернoе давление в разных тoчках местнoсти мoжет значительнo oтличаться oт давления на метеoстанции, в зависимoсти oт услoвий рельефа (при пoдъёме на 10 м давление пoнижается примернo на 1 мм рт.ст.).